[[{"header":{"parameterUnit":"m.s-1","parameterCategory":1,"la1":30.2991,"la2":30.254,"lo1":-89.0895,"lo2":-89.0444,"dy":0.0017,"dx":0.0017,"nx":28,"ny":28,"refTime":"2024-03-04T09:00:00:Z","depth":0,"parameterNumber":2,"parameterNumberName":"U-component_of_WINDS"},"data":[0,0,0,0,0,0,0,0,0,0,0,0,0,0,0,0,0,0,0,0,0,0,0,0,0,0,0,0,0,0,0,0,0,0,0,0,0,0,0,0,0,0,0,0,0,0,0,0,0,0,0,0,0,0,0,0,0,0,-3.9475,-3.9478,0,-3.9805,-3.9809,-3.9813,-3.9773,-3.9767,-3.9762,-3.9757,-4.0103,-4.0116,-4.013,0,0,0,0,0,0,0,0,0,0,0,0,0,-3.8817,-3.8829,-3.9474,-3.9478,-3.9483,-3.9805,-3.9809,-3.9814,-3.9774,-3.9767,-3.9761,-3.9755,-4.0098,-4.0115,-4.0132,0,0,0,0,0,0,0,0,0,0,0,0,0,-3.912,-3.8833,-3.9474,-3.9501,-3.9507,-3.9804,-3.9809,-3.9815,-3.9775,-3.9767,-3.9759,-3.9752,-4.0092,-4.0113,-4.0134,-4.0426,0,0,-4.0199,-4.0208,0,0,0,0,0,0,0,0,-3.9103,-3.9145,-3.9493,-3.95,-3.9507,-3.9739,-3.9704,-4.002,-3.9777,-3.9674,-3.9757,-3.9748,-3.9989,-4.0018,-4.0098,-4.0442,-4.0457,-4.0201,-4.0214,-4.0223,-4.0229,0,0,0,0,0,0,0,-3.9082,-3.913,-3.9605,-3.9498,-3.9507,-3.95,-3.9534,-3.9764,-3.9872,-3.9682,-3.968,-3.9719,-3.9991,-4.0077,-4.0106,-4.0462,-4.02,-4.0219,-4.0232,-4.0241,-4.1067,-4.1076,0,0,0,0,0,0,-3.9053,-3.9113,-3.9595,-3.9615,-3.9281,-3.9518,-3.9557,-3.9673,-3.987,-3.9892,-3.9726,-3.9716,-4.0045,-4.0081,-4.0118,-4.0475,-4.0223,-4.0243,-4.0255,-4.1058,-4.1069,-4.1079,0,0,0,0,0,0,-3.9039,-3.9096,-3.9581,-3.9364,-3.9425,-3.9538,-3.9669,-3.9684,-3.977,-3.9903,-3.9923,-3.9794,-4.004,-4.0088,-4.035,-4.0486,-4.0252,-4.0272,-4.1047,-4.1061,-4.1074,-4.119,0,0,0,0,0,0,-3.902,-3.9092,-3.9202,-3.9366,-3.9437,-3.9806,-3.9678,-3.9696,-3.9806,-3.9797,-3.9972,-3.9993,-4.0037,-4.0319,-4.0371,-4.0511,-4.0288,-4.1035,-4.1054,-4.107,-4.1175,-4.1206,-4.1233,0,0,0,0,0,-3.8997,-3.9222,-3.9207,-3.9266,-3.9576,-3.9814,-3.9854,-3.9899,-3.9817,-3.993,-4.0016,-3.9987,-4.0463,-4.0346,-4.0405,-4.0553,-4.1027,-4.1048,-4.1068,-4.1162,-4.12,-4.1233,0,0,0,0,0,0,-3.9071,-3.9244,-3.923,-3.9514,-3.9649,-3.9807,-3.995,-3.9938,-4.0101,-4.0086,-4.0136,-4.0176,-4.0442,-4.0524,-4.0391,-4.0848,-4.0734,-4.0768,-4.0785,-4.0823,-4.0851,-4.0826,-4.0306,0,0,0,0,0,-3.912,-3.9297,-3.9439,-3.9676,-3.9745,-3.9836,-3.9942,-3.9964,-4.0108,-4.0165,-4.027,-4.0413,-4.0594,-4.0713,-4.0887,-4.1186,-4.1226,-4.1318,-4.1347,-4.1371,-4.1399,-4.1567,-4.161,-4.1147,-4.1147,-4.1146,0,0,-3.9224,-3.934,-3.9449,-3.9694,-3.9802,-3.9986,-3.9885,-4.0083,-4.0222,-4.0196,-4.045,-4.0533,-4.0695,-4.0978,-4.1108,-4.1055,-4.1536,-4.1397,-4.1414,-4.1431,-4.1593,-4.1636,-4.1675,-4.1161,-4.1158,-4.1156,0,0,-3.9508,-3.9612,-3.9823,-3.9933,-4.0097,-4.0157,-4.0208,-4.0368,-4.0422,-4.0677,-4.0663,-4.0829,-4.114,-4.1257,-4.1358,-4.169,-4.1671,-4.1745,-4.1898,-4.2061,-4.2097,-4.213,-4.2251,-4.2293,-4.1773,-4.1774,-4.1774,0,-3.9617,-3.9892,-3.9933,-4.0135,-4.0245,-4.0229,-4.0445,-4.055,-4.0764,-4.0842,-4.0778,-4.117,-4.1278,-4.159,-4.1671,-4.1752,-4.1814,-4.1725,-4.2088,-4.2122,-4.2153,-4.2268,-4.2313,-4.1782,-4.1781,-4.178,-4.1779,0,-4.0019,-4.021,-4.0361,-4.0566,-4.0694,-4.0901,-4.0977,-4.1101,-4.1114,-4.1181,-4.1444,-4.1573,-4.1775,-4.185,-4.1865,-4.2166,-4.2128,-4.2076,-4.1963,-4.2204,-4.2314,-4.2358,-4.1793,-4.179,-4.1788,-4.1786,0,0,-4.0357,-4.0584,-4.0639,-4.0734,-4.0915,-4.1065,-4.1274,-4.147,-4.1576,-4.1725,-4.1903,-4.2168,-4.2122,-4.2237,-4.2265,-4.2407,-4.2665,-4.2339,-4.2344,-4.2396,-4.3007,-4.3046,-4.3096,-4.2653,-4.2662,-4.2669,-4.2994,0,-4.0659,-4.1026,-4.1071,-4.1398,-4.1577,-4.1567,-4.1749,-4.1882,-4.1952,-4.2116,-4.2194,-4.2381,-4.2305,-4.2375,-4.2515,-4.2604,-4.2789,-4.2581,-4.2822,-4.283,-4.2782,-4.3153,-4.3194,-4.3495,-4.3037,-4.3044,-4.305,0,-4.106,-4.122,-4.1565,-4.1724,-4.1801,-4.1964,-4.2149,-4.2305,-4.2457,-4.2498,-4.2627,-4.2638,-4.2857,-4.2734,-4.3038,-4.2896,-4.2998,-4.3057,-4.307,-4.3095,-4.2955,-4.319,-4.3591,-4.3637,-4.3117,-4.3112,-4.3107,0,-4.1275,-4.1576,-4.1822,-4.1903,-4.2095,-4.221,-4.2296,-4.244,-4.2556,-4.2718,-4.2794,-4.2981,-4.3083,-4.3228,-4.3291,-4.3195,-4.3593,-4.3474,-4.3635,-4.3634,-4.3719,-4.3713,-4.4145,-4.3783,-4.3782,-4.3782,-4.3781,0,-4.1608,-4.182,-4.1921,-4.2072,-4.2311,-4.2362,-4.2598,-4.2679,-4.2808,-4.2978,-4.2981,-4.314,-4.3211,-4.3383,-4.3433,-4.3679,-4.3725,-4.3766,-4.3777,-4.3767,-4.3762,-4.3835,-4.3816,-4.3794,-4.3791,-4.3789,-4.3787,0,-4.1887,-4.1963,-4.2231,-4.2391,-4.2437,-4.2606,-4.2744,-4.2893,-4.2961,-4.3176,-4.3229,-4.3338,-4.3541,-4.3617,-4.3863,-4.3897,-4.4182,-4.4176,-4.4131,-4.4134,-4.4291,-4.4276,-4.4785,-4.4856,-4.4446,-4.445,-4.4453,0,-4.2095,-4.2258,-4.2437,-4.255,-4.2639,-4.2821,-4.294,-4.2998,-4.3122,-4.3309,-4.3436,-4.3637,-4.3801,-4.4126,-4.4228,-4.4418,-4.4417,-4.4582,-4.4445,-4.4431,-4.4422,-4.4412,-4.4429,-4.4608,-4.4612,-4.4615,-4.4618,0,-4.2458,-4.2488,-4.2657,-4.2842,-4.2983,-4.3131,-4.3275,-4.3368,-4.3449,-4.3589,-4.3795,-4.3922,-4.4175,-4.4376,-4.4571,-4.4662,-4.4656,-4.4661,-4.4708,-4.47,-4.4667,-4.4689,-4.4201,-4.4649,-4.4646,-4.4643,-4.4642,-4.4641,-4.2709,-4.2855,-4.3003,-4.3194,-4.3308,-4.3444,-4.3592,-4.3679,-4.3852,-4.4061,-4.4086,-4.4308,-4.446,-4.4721,-4.4821,-4.4998,-4.4954,-4.5022,-4.504,-4.5056,-4.5068,-4.4638,-4.5034,-4.5033,-4.5032,-4.5031,-4.5031,0,-4.3073,-4.3169,-4.3343,-4.3545,-4.3696,-4.3674,-4.3834,-4.3962,-4.4157,-4.4298,-4.446,-4.4699,-4.4895,-4.5013,-4.521,-4.5329,-4.5332,-4.5379,-4.5372,-4.5394,-4.5095,-4.5035,-4.5375,-4.5375,-4.5374,-4.5374,-4.5374,-4.5374,-4.328,-4.3526,-4.3574,-4.3878,-4.3973,-4.4191,-4.4284,-4.441,-4.4523,-4.479,-4.4952,-4.5027,-4.5161,-4.5368,-4.5548,-4.5578,-4.5651,-4.5704,-4.573,-4.545,-4.5414,-4.538,-4.5324,-4.5719,-4.5719,-4.6014,-4.6017,-4.6019]},{"header":{"parameterUnit":"m.s-1","parameterCategory":1,"la1":30.2991,"la2":30.254,"lo1":-89.0895,"lo2":-89.0444,"dy":0.0017,"dx":0.0017,"nx":28,"ny":28,"refTime":"2024-03-04T09:00:00:Z","depth":0,"parameterNumber":3,"parameterNumberName":"V-component_of_WINDS"},"data":[0,0,0,0,0,0,0,0,0,0,0,0,0,0,0,0,0,0,0,0,0,0,0,0,0,0,0,0,0,0,0,0,0,0,0,0,0,0,0,0,0,0,0,0,0,0,0,0,0,0,0,0,0,0,0,0,0,0,-1.397,-1.3969,0,-1.3813,-1.3811,-1.3809,-1.3713,-1.3713,-1.3712,-1.3712,-1.3547,-1.3543,-1.3539,0,0,0,0,0,0,0,0,0,0,0,0,0,-1.4185,-1.4182,-1.397,-1.3968,-1.3966,-1.3813,-1.3811,-1.3809,-1.3713,-1.3713,-1.3712,-1.3712,-1.3548,-1.3543,-1.3539,0,0,0,0,0,0,0,0,0,0,0,0,0,-1.4066,-1.4181,-1.3971,-1.39,-1.3893,-1.3814,-1.3811,-1.3808,-1.3714,-1.3713,-1.3712,-1.3711,-1.355,-1.3544,-1.3538,-1.3515,0,0,-1.352,-1.3517,0,0,0,0,0,0,0,0,-1.4073,-1.4059,-1.3913,-1.3905,-1.3896,-1.3782,-1.3826,-1.371,-1.3714,-1.3781,-1.3712,-1.3711,-1.3625,-1.3613,-1.3585,-1.3508,-1.35,-1.3519,-1.3516,-1.3513,-1.3511,0,0,0,0,0,0,0,-1.4082,-1.4065,-1.3908,-1.3911,-1.3901,-1.3876,-1.3858,-1.3804,-1.3709,-1.3775,-1.3768,-1.3751,-1.3621,-1.3591,-1.358,-1.3498,-1.3519,-1.3514,-1.351,-1.3508,-1.3397,-1.3397,0,0,0,0,0,0,-1.4102,-1.4072,-1.3913,-1.3903,-1.3985,-1.3873,-1.3853,-1.3819,-1.3709,-1.3692,-1.3752,-1.3747,-1.3601,-1.3587,-1.3574,-1.3542,-1.3513,-1.3508,-1.3504,-1.3396,-1.3397,-1.3397,0,0,0,0,0,0,-1.4107,-1.4088,-1.3919,-1.3986,-1.3962,-1.387,-1.3833,-1.3817,-1.3787,-1.3692,-1.3674,-1.3739,-1.36,-1.3583,-1.3531,-1.3535,-1.3505,-1.3499,-1.3395,-1.3396,-1.3397,-1.3477,0,0,0,0,0,0,-1.4113,-1.4091,-1.4082,-1.3986,-1.3959,-1.388,-1.3833,-1.3814,-1.3777,-1.377,-1.3675,-1.3659,-1.3598,-1.3541,-1.3526,-1.3526,-1.3495,-1.3394,-1.3396,-1.3397,-1.3474,-1.3481,-1.3487,0,0,0,0,0,-1.4121,-1.4109,-1.4082,-1.4063,-1.3946,-1.3881,-1.3865,-1.3797,-1.3778,-1.3768,-1.3707,-1.3662,-1.3537,-1.3537,-1.3518,-1.3517,-1.3394,-1.3395,-1.3397,-1.3471,-1.348,-1.3487,0,0,0,0,0,0,-1.4205,-1.4095,-1.4063,-1.402,-1.3961,-1.3865,-1.3849,-1.3808,-1.3751,-1.3746,-1.3663,-1.3643,-1.36,-1.3553,-1.3554,-1.3491,-1.346,-1.3458,-1.3523,-1.3531,-1.3537,-1.3549,-1.349,0,0,0,0,0,-1.4219,-1.4176,-1.4081,-1.4052,-1.4024,-1.3943,-1.3911,-1.3865,-1.3799,-1.3773,-1.3708,-1.3645,-1.3592,-1.3558,-1.3504,-1.3467,-1.3446,-1.3457,-1.3464,-1.347,-1.3469,-1.3448,-1.3453,-1.3402,-1.3402,-1.3402,0,0,-1.4246,-1.4181,-1.4158,-1.4068,-1.4016,-1.3973,-1.3922,-1.3877,-1.3845,-1.3765,-1.3714,-1.3665,-1.3589,-1.3546,-1.3523,-1.3505,-1.3478,-1.3471,-1.3477,-1.3472,-1.345,-1.3455,-1.3459,-1.3403,-1.3403,-1.3402,0,0,-1.4274,-1.422,-1.4191,-1.4141,-1.4064,-1.401,-1.4004,-1.3914,-1.3879,-1.3827,-1.3767,-1.3726,-1.3636,-1.3585,-1.3548,-1.356,-1.3517,-1.3544,-1.3578,-1.3559,-1.3563,-1.3566,-1.3572,-1.3575,-1.3544,-1.3544,-1.3544,0,-1.4317,-1.4251,-1.4181,-1.4141,-1.4104,-1.4032,-1.4002,-1.3957,-1.3866,-1.3841,-1.3823,-1.371,-1.3654,-1.3599,-1.3602,-1.3574,-1.3564,-1.3555,-1.3568,-1.357,-1.3572,-1.3577,-1.3579,-1.3548,-1.3548,-1.3547,-1.3547,0,-1.4309,-1.4264,-1.4249,-1.4166,-1.4127,-1.4092,-1.4017,-1.3985,-1.3943,-1.3891,-1.3839,-1.377,-1.3702,-1.3685,-1.3641,-1.3624,-1.3616,-1.3584,-1.3552,-1.3582,-1.3586,-1.3587,-1.3554,-1.3552,-1.3551,-1.355,0,0,-1.4383,-1.4264,-1.426,-1.4222,-1.4134,-1.4097,-1.406,-1.3995,-1.397,-1.391,-1.3877,-1.3804,-1.3775,-1.3733,-1.3683,-1.3666,-1.3683,-1.3636,-1.3633,-1.3649,-1.3662,-1.3687,-1.369,-1.3654,-1.3654,-1.3654,-1.3669,0,-1.4399,-1.433,-1.4267,-1.4221,-1.4179,-1.4112,-1.408,-1.4022,-1.3973,-1.393,-1.3875,-1.3825,-1.379,-1.3764,-1.3744,-1.3685,-1.3685,-1.3683,-1.3623,-1.3621,-1.3645,-1.3692,-1.3717,-1.3735,-1.3669,-1.3669,-1.3669,0,-1.4408,-1.4354,-1.4304,-1.4222,-1.4202,-1.4175,-1.4111,-1.4071,-1.4004,-1.397,-1.3925,-1.3874,-1.3831,-1.3804,-1.3745,-1.3746,-1.3718,-1.3685,-1.3684,-1.3676,-1.3648,-1.3686,-1.3738,-1.3742,-1.367,-1.367,-1.367,0,-1.447,-1.4384,-1.4344,-1.4313,-1.4216,-1.4199,-1.4157,-1.409,-1.4056,-1.4,-1.3977,-1.3917,-1.3884,-1.3839,-1.3773,-1.3759,-1.3722,-1.3688,-1.3693,-1.3695,-1.3688,-1.3689,-1.3738,-1.3668,-1.3668,-1.3668,-1.3668,0,-1.4495,-1.4467,-1.4371,-1.4346,-1.4314,-1.4242,-1.4212,-1.4164,-1.4105,-1.407,-1.4007,-1.3976,-1.3891,-1.3849,-1.3797,-1.3758,-1.3742,-1.3714,-1.3701,-1.372,-1.3724,-1.3701,-1.3698,-1.3669,-1.3669,-1.3669,-1.3668,0,-1.4558,-1.4492,-1.4444,-1.4357,-1.4335,-1.4315,-1.424,-1.4214,-1.4162,-1.4119,-1.4105,-1.4024,-1.3971,-1.3902,-1.3827,-1.3792,-1.376,-1.3738,-1.3783,-1.3775,-1.3784,-1.3785,-1.382,-1.3822,-1.3751,-1.3752,-1.3752,0,-1.4578,-1.4556,-1.4468,-1.4441,-1.4402,-1.4359,-1.4325,-1.4253,-1.422,-1.4144,-1.4127,-1.4071,-1.4022,-1.3942,-1.3876,-1.3819,-1.3797,-1.3813,-1.3788,-1.3809,-1.3799,-1.3802,-1.38,-1.3819,-1.3821,-1.3821,-1.3822,0,-1.4622,-1.4592,-1.4545,-1.4489,-1.445,-1.4401,-1.4349,-1.4331,-1.4248,-1.4214,-1.4161,-1.4124,-1.4049,-1.3995,-1.393,-1.3886,-1.3841,-1.3831,-1.3829,-1.3849,-1.3877,-1.3864,-1.3802,-1.383,-1.3829,-1.3829,-1.3828,-1.3828,-1.4665,-1.4644,-1.4579,-1.453,-1.4484,-1.4438,-1.441,-1.4357,-1.4312,-1.4247,-1.4207,-1.4157,-1.4092,-1.4001,-1.396,-1.3919,-1.3901,-1.3898,-1.3898,-1.3898,-1.3906,-1.3883,-1.3907,-1.3907,-1.3906,-1.3906,-1.3906,0,-1.4708,-1.4664,-1.4619,-1.4551,-1.4513,-1.4475,-1.4416,-1.4387,-1.4344,-1.4288,-1.4243,-1.4183,-1.413,-1.4062,-1.4004,-1.3985,-1.3963,-1.3973,-1.3974,-1.3965,-1.3924,-1.3932,-1.3992,-1.3992,-1.3992,-1.3992,-1.3992,-1.3992,-1.4725,-1.4687,-1.465,-1.4588,-1.4544,-1.4495,-1.4465,-1.4423,-1.4379,-1.4316,-1.4272,-1.4229,-1.4168,-1.4106,-1.4057,-1.4038,-1.402,-1.4037,-1.4012,-1.3975,-1.3967,-1.396,-1.3967,-1.4033,-1.4033,-1.4056,-1.4056,-1.4056]}]]